#timestamp,LO_Frequency,Hit,StdDev 
1644084015.8,286047003.4,N
1644084035.6,286047003.9,N
1644084055.4,286047003.5,N
1644084075.3,286047003.9,N
1644084095.1,286047005.1,N
1644084115.9,286047005.9,N
1644084135.7,286047003.4,N
1644084155.5,286047003.3,N
1644084175.4,286047003.6,N
1644084195.2,286047000.1,N
1644084215.0,286046999.7,N
1644084215.9,286046999.7,N
1644084235.8,286047004.3,N
1644084255.6,286047003.5,N
1644084275.5,286047005.9,N
1644084295.3,286047006.3,N
1644084315.1,286047006.1,N
1644084335.9,286047007.3,N
1644084355.7,286047008.2,Y
1644084375.5,286047003.1,P
1644084395.4,286047003.3,P
1644084415.2,286047003.8,P
1644084435.1,286047006.0,Y
1644084436.0,286047006.0,P
1644084455.8,286047000.6,N
1644084475.6,286047001.2,N
1644084495.5,286046999.6,N
1644084515.3,286046997.8,N
1644084535.2,286046997.8,N
1644084555.9,286046998.0,N
1644084575.7,286046996.5,N
1644084595.6,286046999.4,N
1644084615.4,286046997.5,N
1644084635.2,286046993.5,N
1644084655.1,286046993.0,N
1644084656.0,286046993.0,N
1644084675.8,286046990.3,N
1644084695.7,286046991.2,N
1644084715.5,286046989.6,N
1644084735.3,286046987.1,N
1644084755.2,286046991.5,N
1644084775.9,286046993.2,N
1644084795.7,286046990.8,N
1644084815.6,286046992.9,N
1644084835.4,286046992.1,N
1644084855.3,286046992.6,N
1644084875.1,286046990.6,N
1644084876.0,286046990.6,N
1644084895.8,286046993.1,N
1644084915.7,286046991.8,N
1644084935.5,286046993.6,N
1644084955.3,286046994.2,N
1644084975.2,286046994.7,N
1644084995.0,286046994.3,N
1644084995.9,286046994.3,N
1644085015.8,286046993.5,N
1644085035.6,286046992.5,N
1644085055.4,286046990.5,Y
1644085075.3,286046996.8,P
1644085095.1,286047001.2,N
1644085115.8,286047002.1,N
1644085135.7,286047001.6,N
1644085155.5,286047002.9,N
1644085175.4,286047003.3,N
1644085195.2,286047006.9,N
1644085215.0,286047005.6,N
1644085215.9,286047005.6,N
1644085235.8,286047007.1,N
1644085255.6,286047007.6,N
1644085275.4,286047006.4,N
1644085295.3,286047007.5,N
1644085315.1,286047007.4,N
1644085335.9,286047006.9,N
1644085355.7,286047009.1,N
1644085375.5,286047007.0,N
1644085395.4,286047004.7,N
1644085415.2,286047007.1,N
1644085435.0,286047008.0,N
1644085436.0,286047008.0,N
1644085455.8,286047009.0,N
1644085475.6,286047006.3,N
1644085495.5,286047010.4,N
1644085515.3,286047008.5,N
1644085535.1,286047007.5,N
1644085555.9,286047006.7,N
1644085575.7,286047006.4,N
1644085595.5,286047004.6,N
1644085615.4,286047005.0,N
1644085635.2,286047007.3,N
1644085655.1,286047008.4,Y
1644085656.0,286047008.4,P
1644085675.8,286046999.8,N
1644085695.6,286047001.7,N
1644085715.5,286047001.3,N
1644085735.3,286047000.0,N
1644085755.2,286046998.9,N
1644085775.9,286047002.6,N
1644085795.7,286047000.2,N
1644085815.6,286047000.5,N
1644085835.4,286046999.5,N
1644085855.2,286047002.6,N
1644085875.1,286047004.3,N
1644085876.0,286047004.3,N
1644085895.8,286046999.7,N
1644085915.7,286046999.8,N
1644085935.5,286047003.4,N
1644085955.3,286047008.4,Y
1644085975.2,286047007.4,P
1644085995.0,286047008.0,N
1644085995.9,286047008.0,N
1644086015.8,286047007.9,Y
1644086035.6,286047001.1,P
1644086055.4,286046996.5,N
1644086075.3,286046999.2,N
1644086095.1,286046995.9,N
1644086115.8,286046995.6,N
1644086135.7,286046997.9,N
1644086155.5,286046995.6,N
1644086175.4,286046996.9,N
1644086195.2,286046998.0,N
1644086215.0,286046995.6,N
1644086215.9,286046995.6,N
1644086235.8,286046993.7,N
1644086255.6,286046996.0,N
1644086275.4,286046996.0,N
1644086295.3,286046992.8,N
1644086315.1,286046994.5,N
1644086335.9,286046991.7,N
1644086355.7,286046990.4,Y
1644086375.5,286046992.3,P
1644086395.4,286046994.2,N
1644086415.2,286046993.9,P
1644086435.1,286046994.9,Y
1644086436.0,286046994.9,P
1644086455.8,286047004.4,P
1644086475.6,286047003.2,N
1644086495.5,286047003.3,N
1644086515.3,286047004.0,N
1644086535.1,286047001.3,N
1644086555.9,286047003.4,N
1644086575.7,286047000.7,N
1644086595.6,286047002.3,N
1644086615.4,286047004.4,N
1644086635.2,286047003.9,N
1644086655.1,286047002.3,N
1644086656.0,286047002.3,N
1644086675.8,286047001.2,N
1644086695.6,286047003.0,N
1644086715.5,286047005.6,N
1644086735.3,286047004.4,N
1644086755.2,286046999.9,N
1644086775.9,286047000.4,N
1644086795.7,286047001.9,N
1644086815.6,286046999.9,N
1644086835.4,286047002.0,N
1644086855.2,286047000.4,N
1644086875.1,286047001.4,N
1644086876.0,286047001.4,N
1644086895.8,286047000.3,N
1644086915.7,286047002.5,N
1644086935.5,286047001.8,N
1644086955.3,286047002.2,N
1644086975.2,286047002.1,N
1644086995.0,286047000.6,N
1644086995.9,286047000.6,N
1644087015.8,286046998.8,N
1644087035.6,286046997.3,N
1644087055.4,286046996.2,N
1644087075.3,286046998.1,N
1644087095.1,286046996.6,N
1644087115.8,286046998.7,N
1644087135.7,286046999.1,N
1644087155.5,286046997.2,N
1644087175.4,286046997.6,N
1644087195.2,286046997.6,N
1644087215.0,286046996.7,N
1644087215.9,286046996.7,N
1644087235.8,286046999.2,N
1644087255.6,286046996.7,N
1644087275.4,286046996.8,N
1644087295.3,286046998.0,N
1644087315.1,286046999.5,N
1644087335.9,286046994.9,N
1644087355.7,286046995.7,N
1644087375.5,286046996.3,N
1644087395.4,286046994.0,N
1644087415.2,286046994.5,N
1644087435.1,286046991.8,Y
1644087436.0,286046991.8,P
1644087455.8,286046994.6,N
1644087475.6,286046993.2,N
1644087495.5,286046992.3,Y
1644087515.3,286046998.7,P
1644087535.1,286046998.5,N
1644087555.9,286047000.2,N
1644087575.7,286046999.6,N
1644087595.6,286047000.8,N
